Theta_e
311 309 308 307 308 310 310 310 309 309 309 311 314 313 312 315 317 317 315 312 314 316 312 314 314 316 316 321 320 320 324 323 319 319 319 317 316 314 315 314 313 313 308 308 307
314 309 309 309 309 310 311 311 310 311 311 311 314 314 315 316 319 316 312 314 315 315 313 314 316 316 319 320 321 321 325 320 317 316 317 316 315 314 314 312 312 311 307 307 305
316 309 310 311 310 310 312 312 312 313 312 312 313 314 314 313 321 316 314 314 312 312 312 313 314 318 320 319 319 320 321 318 318 317 315 316 314 314 314 312 310 307 305 305 304
319 312 311 312 311 311 312 313 314 314 313 312 314 315 315 315 322 314 315 313 313 312 313 316 317 317 318 319 318 317 318 318 318 315 314 315 314 312 311 310 306 304 304 303 302
320 315 312 313 312 312 313 314 316 316 315 313 316 316 315 321 317 313 314 312 312 313 314 316 316 316 318 318 317 318 317 316 315 314 314 314 314 313 309 307 304 304 303 301 301
320 317 314 314 313 313 315 315 317 317 314 312 316 316 320 322 313 315 312 312 311 312 314 313 314 314 316 318 317 317 316 315 315 314 314 314 313 313 308 304 303 303 302 300 300
318 318 315 314 313 313 316 318 319 317 315 314 316 317 321 318 313 312 311 312 311 310 314 311 311 315 317 318 315 314 315 314 314 314 314 313 314 312 307 305 303 302 301 301 300
316 319 316 313 313 313 317 319 320 318 313 316 317 318 321 313 315 313 311 312 310 310 310 309 310 313 315 315 315 315 315 317 314 314 313 313 313 307 306 306 301 300 298 298 299
315 318 315 312 312 313 316 321 321 316 312 316 320 318 320 315 317 313 312 310 310 311 310 309 311 315 315 318 317 317 317 314 316 312 313 313 314 307 306 303 300 298 297 297 298
316 317 315 311 311 313 316 322 318 316 315 316 317 320 316 318 316 312 311 310 312 313 315 314 314 315 316 316 314 313 312 313 314 314 312 313 313 307 304 301 298 297 297 296 295
318 318 316 310 310 310 314 316 317 321 314 317 317 316 317 317 312 313 310 311 314 314 319 317 313 316 317 312 311 312 313 313 313 313 311 311 309 307 303 300 298 296 296 296 294
320 319 317 309 309 309 311 314 313 313 314 314 315 316 317 313 314 312 310 313 314 317 318 318 318 312 311 311 314 314 313 312 312 313 310 309 309 306 301 300 298 297 297 296 294
321 320 318 307 308 311 309 309 309 312 317 317 316 318 316 312 314 313 310 312 314 317 316 315 316 310 310 311 313 311 311 311 311 309 307 307 306 304 299 298 298 297 297 294 293
321 320 319 309 312 307 314 306 311 311 318 319 315 317 311 311 313 309 307 309 315 316 311 310 308 311 312 313 311 311 306 307 308 307 306 305 305 306 298 297 297 297 294 293 292
320 320 318 307 306 312 308 307 308 312 323 318 317 310 311 312 312 312 307 308 312 314 310 313 308 308 309 309 310 311 305 305 305 306 305 304 303 306 300 298 298 295 294 293 293
318 319 318 309 306 307 305 308 309 320 322 319 318 317 315 311 313 312 311 308 308 308 308 308 307 308 308 310 308 306 306 306 305 303 305 305 305 307 302 301 296 294 292 293 292
317 318 318 308 311 305 307 313 319 321 318 319 318 316 315 316 317 313 314 311 312 315 315 312 308 307 306 308 308 307 305 306 310 308 309 303 301 303 298 296 294 293 292 292 291
317 317 315 313 306 304 313 313 319 320 320 314 315 314 317 317 317 312 311 311 312 311 310 312 314 309 306 307 305 305 304 305 307 309 307 300 301 303 297 295 294 293 292 291 290
316 316 313 314 307 305 312 317 315 317 320 318 315 318 320 313 313 310 310 311 314 309 310 312 311 302 300 301 302 305 303 302 303 294 298 299 302 298 296 295 294 292 291 290 290
317 314 315 312 305 312 310 317 316 316 314 314 319 318 317 317 312 313 314 313 310 308 305 307 308 304 298 299 298 299 300 301 300 297 300 303 302 302 296 295 293 291 291 290 290
315 315 312 310 307 312 308 312 316 315 315 316 317 317 316 317 317 316 315 311 307 304 303 304 305 303 300 299 300 296 297 297 297 302 301 299 300 296 295 294 292 292 291 290 290
311 317 308 308 314 314 315 314 313 314 313 314 314 315 316 316 317 316 316 315 304 301 302 302 303 303 302 296 295 295 297 297 295 298 296 297 297 298 296 292 291 291 290 290 290
312 314 308 310 316 316 315 314 314 315 312 311 313 314 313 314 315 314 314 302 302 301 301 297 301 307 304 295 294 293 294 294 295 295 295 299 298 294 294 293 290 290 289 289 289
316 314 311 309 311 314 315 316 315 310 311 311 311 312 313 312 312 313 312 301 300 300 298 299 301 306 316 310 296 294 293 293 293 294 296 296 295 296 296 295 290 289 289 288 288
314 315 312 312 312 312 313 315 315 316 311 310 311 311 312 313 313 313 311 299 297 297 296 298 302 302 301 298 297 297 295 293 293 293 294 296 295 296 294 291 289 290 290 289 288
314 313 309 314 312 312 313 315 316 316 316 315 314 313 311 312 313 313 311 309 303 295 297 298 300 301 300 296 295 294 294 293 294 294 293 293 293 294 294 292 289 289 289 288 288
312 313 313 314 315 316 315 315 316 315 316 316 316 314 313 312 310 307 304 306 305 300 299 300 299 298 302 296 296 297 295 294 294 294 293 293 293 294 292 290 290 289 288 287 285
Wind_Speed
21 23 25 27 28 28 29 28 27 29 26 22 20 8 6 8 10 8 7 8 11 10 7 10 6 1 4 2 3 2 2 2 5 5 4 5 7 8 4 8 10 11 13 13 21
20 22 25 27 28 28 29 28 27 28 25 21 19 5 9 5 4 11 9 15 10 8 6 11 8 10 3 2 2 2 2 5 5 6 7 8 6 5 5 10 7 10 16 19 20
20 22 24 26 27 28 28 27 28 29 26 21 18 7 5 4 3 3 13 13 10 6 3 4 6 4 4 1 2 3 2 4 4 7 7 4 5 1 4 6 9 8 8 11 18
20 22 24 26 27 28 28 27 27 29 26 20 20 4 2 3 0 5 13 12 10 9 7 7 6 3 3 1 4 4 2 3 4 6 5 3 4 9 10 8 14 10 9 12 10
20 21 24 26 27 27 27 26 27 29 25 19 17 1 2 3 4 8 10 11 8 9 9 6 6 5 4 3 3 5 3 2 4 3 1 5 3 10 12 15 11 11 11 9 9
20 21 23 25 27 27 27 25 26 28 24 17 12 1 2 3 2 8 10 8 13 10 7 9 5 3 5 3 2 3 5 8 0 2 3 5 2 5 14 14 10 9 9 8 9
19 21 23 24 26 26 26 25 27 27 21 15 7 2 1 2 1 8 10 5 9 7 3 2 4 4 3 4 2 3 4 5 5 3 2 3 5 6 16 12 10 9 7 7 10
17 20 22 24 26 26 26 25 28 23 13 11 4 2 2 2 1 7 7 1 7 6 1 2 2 5 3 3 3 4 3 5 8 8 5 2 3 8 10 11 9 8 7 8 8
16 18 20 22 24 26 25 27 23 18 6 7 2 2 2 1 1 6 8 3 8 5 2 2 2 3 2 3 4 5 3 8 2 10 6 7 4 10 10 11 8 7 7 7 7
15 17 18 21 23 24 24 24 17 8 7 4 3 2 2 1 4 6 6 5 3 7 4 4 4 3 4 1 2 4 6 6 6 2 7 6 10 8 8 11 8 7 7 6 7
14 16 17 18 20 18 22 11 8 1 10 4 4 5 1 6 4 1 5 6 4 4 6 1 1 7 5 5 4 5 7 10 10 4 0 7 8 9 13 9 8 7 6 5 6
12 15 15 16 17 13 10 5 3 1 8 2 2 4 4 2 2 2 7 2 4 6 9 5 7 4 3 3 4 6 9 11 4 4 5 10 15 4 14 11 9 7 4 4 6
10 14 15 14 12 7 7 5 0 2 4 2 2 3 2 2 2 2 6 0 2 4 7 4 7 2 2 5 7 7 8 4 4 7 10 17 14 9 8 6 7 7 4 6 7
10 12 15 12 2 6 2 6 1 2 3 3 3 2 2 2 3 2 3 2 2 5 4 8 3 2 5 7 4 5 4 3 8 5 4 7 7 3 13 10 9 7 6 6 6
12 11 12 10 5 3 2 3 3 1 5 1 3 1 1 2 1 1 1 1 4 6 4 8 2 3 4 4 2 2 2 6 10 11 11 9 6 5 19 13 11 8 6 6 5
11 10 11 4 4 4 2 2 2 1 8 2 3 2 3 4 5 4 2 2 2 4 7 13 6 3 2 2 2 6 6 9 12 9 4 7 5 5 10 14 10 6 6 5 5
12 11 9 5 3 2 2 1 2 4 1 4 2 3 1 3 3 2 1 3 3 5 3 0 10 3 1 3 5 3 4 4 5 1 6 6 5 8 6 10 10 7 5 5 5
12 11 10 8 8 4 2 2 7 6 7 2 2 1 4 3 4 3 1 4 9 5 4 4 4 7 5 2 1 3 0 4 6 3 5 7 7 4 13 11 9 7 5 6 9
12 9 6 10 9 7 2 6 6 7 2 5 2 6 6 2 2 3 8 7 2 9 7 4 4 4 3 3 2 4 4 1 1 2 3 5 6 5 11 9 7 6 7 7 6
8 4 10 11 9 6 3 14 10 5 5 2 7 7 5 5 6 6 6 3 5 2 6 4 7 2 3 1 2 2 3 3 1 3 6 5 7 4 8 5 6 5 4 4 6
8 3 6 13 11 3 8 10 14 18 6 7 7 11 11 8 7 6 7 5 7 4 3 2 4 2 4 7 7 4 3 4 1 4 5 3 4 6 7 7 3 2 3 7 8
9 4 10 18 4 4 13 9 14 19 3 7 1 10 13 8 11 8 7 9 10 9 8 6 4 4 7 3 3 0 6 9 4 5 4 5 15 5 2 9 7 4 4 5 7
3 4 8 9 6 12 8 14 20 20 7 8 10 11 7 7 5 9 11 4 10 9 8 8 3 3 5 2 0 5 6 4 4 2 17 4 9 5 9 10 7 4 4 5 9
4 4 3 4 6 11 15 22 22 8 12 14 8 7 7 10 7 6 7 2 2 5 4 5 5 10 17 8 5 5 8 10 13 12 22 24 30 15 13 13 5 6 6 7 10
6 6 8 6 10 19 18 8 17 18 14 14 10 21 18 12 10 18 11 4 3 5 4 5 8 12 21 16 9 13 9 13 18 23 18 33 22 21 9 4 3 2 5 8 12
6 5 2 8 12 21 24 24 28 22 12 9 23 16 13 22 23 9 12 9 8 8 7 4 4 7 15 7 10 17 16 16 22 25 24 28 33 18 12 2 4 4 6 9 11
22 9 3 9 16 16 21 26 28 19 20 28 23 12 18 21 10 6 2 1 9 12 12 8 6 4 6 4 8 14 22 27 27 20 23 23 29 12 6 2 2 4 6 5 8
Wind_Direction
11 11 12 12 10 10 9 6 6 8 13 16 15 26 92 84 71 50 49 342 326 337 349 326 271 191 259 148 305 303 295 269 31 11 8 84 39 38 136 66 45 61 70 58 38
6 8 8 8 7 7 6 3 3 4 9 10 11 25 138 95 114 66 5 350 352 353 39 358 1 335 225 159 199 282 298 26 6 15 11 9 48 23 57 59 38 56 54 52 51
1 3 4 3 3 3 3 2 358 360 5 7 2 356 229 256 290 40 351 353 9 13 3 315 289 259 291 120 92 356 299 7 10 42 12 316 51 359 112 51 57 71 60 47 50
358 359 360 359 358 359 0 357 355 355 359 4 355 356 139 161 345 347 347 3 12 17 341 329 289 335 309 331 103 290 44 349 21 46 2 354 282 80 78 84 85 73 64 53 38
354 356 355 355 355 355 356 353 351 350 352 358 354 339 220 194 59 335 354 10 25 29 27 350 7 345 314 5 356 214 113 230 277 299 329 308 105 126 93 94 92 85 67 56 52
349 353 353 353 351 351 351 349 345 344 346 350 354 350 270 246 44 349 358 11 22 25 25 14 8 356 282 310 295 360 307 275 157 91 146 2 49 150 107 114 104 96 82 69 60
345 350 350 350 349 347 347 344 338 336 341 345 350 323 356 90 54 16 6 18 12 11 1 54 331 271 15 249 11 291 289 126 186 175 154 348 214 183 119 120 102 84 72 61 62
340 346 347 346 346 344 343 339 331 330 337 345 348 285 53 157 108 358 16 345 357 333 355 326 307 287 256 44 234 252 214 203 167 191 154 112 287 102 121 125 105 98 68 47 33
335 342 345 345 345 342 342 338 323 327 328 349 313 327 134 147 348 345 357 4 314 282 279 287 238 288 116 223 242 213 316 320 291 190 140 186 268 121 118 123 126 99 71 50 40
333 338 343 343 344 343 344 339 316 326 346 336 291 245 130 54 300 325 330 344 304 296 198 234 217 227 229 303 280 326 306 302 290 177 196 267 253 124 138 136 132 102 86 61 43
333 338 341 342 343 346 351 357 355 236 15 273 313 275 59 310 293 178 333 320 216 218 327 109 308 282 47 54 326 272 263 272 279 112 172 244 262 260 150 142 138 120 98 67 47
330 337 338 341 341 347 15 54 69 273 311 193 289 287 266 313 267 127 349 333 357 312 314 312 270 68 21 287 260 276 271 274 299 139 350 270 262 157 164 168 148 128 112 62 26
320 329 335 339 340 6 50 67 82 77 265 244 196 264 111 203 349 56 341 83 301 309 342 290 278 66 279 294 282 283 285 319 290 311 272 275 271 151 156 133 143 157 159 58 33
309 323 335 336 39 351 82 353 69 104 280 205 212 145 187 297 232 15 22 57 268 290 337 267 81 36 306 275 284 280 50 312 280 308 243 51 286 84 167 174 180 156 88 47 17
298 312 332 342 317 296 286 355 63 64 319 297 150 108 98 247 79 163 338 198 229 269 101 248 242 277 272 271 88 252 330 258 261 253 282 256 255 285 158 190 182 141 92 40 12
280 298 325 338 315 258 306 69 65 229 244 151 127 154 216 184 185 144 237 213 71 293 228 248 119 215 278 104 183 324 287 272 252 258 271 256 227 225 179 198 143 118 67 35 353
266 282 309 295 261 255 121 238 272 216 183 165 197 208 31 211 171 162 248 216 241 305 251 248 211 110 154 261 156 226 289 325 331 9 228 74 331 241 139 99 120 100 59 25 348
254 276 288 268 258 203 133 209 227 251 270 70 109 185 235 113 207 116 212 258 233 223 314 262 296 166 154 208 72 202 156 159 259 261 268 23 253 247 123 125 130 88 69 28 17
244 269 259 259 234 181 219 209 212 209 306 137 142 228 215 141 220 197 212 228 266 182 197 310 243 94 30 46 127 153 200 13 354 59 359 231 259 71 140 149 94 47 39 22 349
221 231 235 231 190 163 225 225 235 198 122 106 225 233 261 204 185 189 209 180 198 157 77 348 300 53 98 101 144 251 159 80 133 294 266 249 250 238 186 155 76 21 18 342 342
182 233 172 192 151 215 216 214 237 254 211 201 235 260 259 271 241 233 250 196 155 114 62 33 207 170 127 202 181 168 226 221 335 194 221 295 256 148 156 156 112 4 12 1 336
165 226 174 151 176 210 225 218 229 263 238 238 250 255 265 266 271 253 238 215 120 139 168 194 240 246 250 71 49 296 223 182 164 243 256 252 262 328 97 136 113 66 6 310 327
203 222 176 179 215 224 234 230 234 244 215 195 233 213 187 223 257 220 236 338 140 163 174 177 221 315 279 77 83 234 204 242 254 177 237 231 252 129 152 179 83 58 316 336 332
178 224 164 207 252 245 233 236 234 195 235 220 240 217 213 232 224 264 182 160 124 153 99 152 209 207 256 270 148 221 219 213 220 237 254 237 258 255 271 293 37 6 347 348 330
204 227 176 198 214 227 234 251 233 226 211 202 241 234 238 256 234 236 248 145 160 173 167 171 229 230 255 272 278 266 252 219 219 234 232 261 246 265 257 206 174 355 345 332 330
201 203 170 237 176 207 223 231 237 239 244 209 232 227 220 233 225 233 221 192 195 173 174 180 240 246 266 278 274 267 248 248 245 242 247 257 270 258 283 246 21 343 356 325 317
212 205 209 213 217 224 214 225 233 225 238 239 243 238 235 236 243 284 68 58 170 159 182 185 199 170 247 61 336 282 234 233 244 240 238 247 250 283 245 248 32 5 331 325 330